Time,TemperatureF,DewpointF,PressureIn,WindDirection,WindDirectionDegrees,WindSpeedMPH,WindSpeedGustMPH,Humidity,HourlyPrecipIn,Conditions,Clouds,dailyrainin,SoftwareType,DateUTC
2013-04-23 00:00:00,47.1,45.7,30.00,West,270,0.0,-999.0,95,-99.99,,,0.00,Acu-Link.com,2013-04-23 04:00:00,
2013-04-23 00:15:00,47.1,45.2,29.99,West,270,0.0,-999.0,93,-99.99,,,0.00,Acu-Link.com,2013-04-23 04:15:00,
2013-04-23 00:30:00,46.9,45.5,29.99,West,270,0.0,-999.0,95,-99.99,,,0.00,Acu-Link.com,2013-04-23 04:30:00,
2013-04-23 00:45:00,46.6,45.2,30.00,NW,315,0.0,-999.0,95,-99.99,,,0.00,Acu-Link.com,2013-04-23 04:45:00,
2013-04-23 01:00:00,46.2,44.8,30.00,NW,315,0.0,-999.0,95,-99.99,,,0.00,Acu-Link.com,2013-04-23 05:00:00,
2013-04-23 01:16:00,45.9,44.8,30.01,East,90,0.0,-999.0,96,-99.99,,,0.00,Acu-Link.com,2013-04-23 05:16:00,
2013-04-23 01:31:00,45.3,44.5,30.01,WNW,292,0.0,-999.0,97,-99.99,,,0.00,Acu-Link.com,2013-04-23 05:31:00,
2013-04-23 01:46:00,44.8,43.7,30.00,WNW,292,0.0,-999.0,96,-99.99,,,0.00,Acu-Link.com,2013-04-23 05:46:00,
2013-04-23 02:01:00,44.6,44.1,30.00,West,270,1.7,-999.0,98,-99.99,,,0.00,Acu-Link.com,2013-04-23 06:01:00,
2013-04-23 02:16:00,44.4,43.9,30.01,WNW,292,0.0,-999.0,98,-99.99,,,0.00,Acu-Link.com,2013-04-23 06:16:00,
2013-04-23 02:31:00,43.9,43.6,30.00,West,270,0.0,-999.0,99,-99.99,,,0.00,Acu-Link.com,2013-04-23 06:31:00,
2013-04-23 02:46:00,43.7,43.2,30.00,West,270,0.0,-999.0,98,-99.99,,,0.00,Acu-Link.com,2013-04-23 06:46:00,
2013-04-23 03:02:00,43.3,42.8,30.01,West,270,0.0,-999.0,98,-99.99,,,0.00,Acu-Link.com,2013-04-23 07:02:00,
2013-04-23 03:17:00,42.8,42.3,30.01,West,270,0.0,-999.0,98,-99.99,,,0.00,Acu-Link.com,2013-04-23 07:17:00,
2013-04-23 03:32:00,42.4,42.1,30.01,West,270,0.0,-999.0,99,-99.99,,,0.00,Acu-Link.com,2013-04-23 07:32:00,
2013-04-23 03:47:00,41.9,41.6,30.01,West,270,0.0,-999.0,99,-99.99,,,0.00,Acu-Link.com,2013-04-23 07:47:00,
2013-04-23 04:02:00,41.9,41.6,30.01,West,270,0.0,-999.0,99,-99.99,,,0.00,Acu-Link.com,2013-04-23 08:02:00,
2013-04-23 04:17:00,41.5,41.2,30.01,West,270,0.0,-999.0,99,-99.99,,,0.00,Acu-Link.com,2013-04-23 08:17:00,
2013-04-23 04:33:00,41.2,40.9,30.01,West,270,0.0,-999.0,99,-99.99,,,0.00,Acu-Link.com,2013-04-23 08:33:00,
2013-04-23 04:48:00,41.0,40.7,30.01,West,270,0.0,-999.0,99,-99.99,,,0.00,Acu-Link.com,2013-04-23 08:48:00,
2013-04-23 05:03:00,40.6,40.3,30.01,West,270,0.0,-999.0,99,-99.99,,,0.00,Acu-Link.com,2013-04-23 09:03:00,
2013-04-23 05:18:00,40.5,40.2,30.01,West,270,0.0,-999.0,99,-99.99,,,0.00,Acu-Link.com,2013-04-23 09:18:00,
2013-04-23 05:33:00,40.3,40.0,30.01,West,270,0.0,-999.0,99,-99.99,,,0.00,Acu-Link.com,2013-04-23 09:33:00,
2013-04-23 05:48:00,40.1,39.8,30.01,West,270,0.0,-999.0,99,-99.99,,,0.00,Acu-Link.com,2013-04-23 09:48:00,
2013-04-23 06:03:00,39.7,39.4,30.00,West,270,0.0,-999.0,99,-99.99,,,0.00,Acu-Link.com,2013-04-23 10:03:00,
2013-04-23 06:18:00,39.2,38.9,30.00,West,270,0.0,-999.0,99,-99.99,,,0.00,Acu-Link.com,2013-04-23 10:18:00,
2013-04-23 06:33:00,39.0,38.7,30.01,West,270,0.0,-999.0,99,-99.99,,,0.00,Acu-Link.com,2013-04-23 10:33:00,
2013-04-23 06:49:00,39.2,38.9,30.02,West,270,0.0,-999.0,99,-99.99,,,0.00,Acu-Link.com,2013-04-23 10:49:00,
2013-04-23 07:04:00,39.2,38.9,30.03,West,270,0.0,-999.0,99,-99.99,,,0.00,Acu-Link.com,2013-04-23 11:04:00,
2013-04-23 07:19:00,39.0,38.7,30.03,West,270,0.0,-999.0,99,-99.99,,,0.00,Acu-Link.com,2013-04-23 11:19:00,
2013-04-23 07:34:00,41.0,40.7,30.02,West,270,0.0,-999.0,99,-99.99,,,0.00,Acu-Link.com,2013-04-23 11:34:00,
2013-04-23 08:08:00,47.3,44.2,30.04,West,270,0.0,-999.0,89,-99.99,,,0.00,Acu-Link.com,2013-04-23 12:08:00,
2013-04-23 08:48:00,57.6,49.7,30.03,SW,225,0.0,-999.0,75,-99.99,,,0.00,Acu-Link.com,2013-04-23 12:48:00,
2013-04-23 09:09:00,61.9,52.0,30.02,SE,135,2.2,-999.0,70,-99.99,,,0.00,Acu-Link.com,2013-04-23 13:09:00,
2013-04-23 09:25:00,65.3,53.2,30.02,ESE,112,2.7,-999.0,65,-99.99,,,0.00,Acu-Link.com,2013-04-23 13:25:00,
2013-04-23 09:44:00,66.2,51.4,30.02,SSE,157,2.2,-999.0,59,-99.99,,,0.00,Acu-Link.com,2013-04-23 13:44:00,
2013-04-23 09:59:00,68.5,49.1,30.03,South,180,3.7,-999.0,50,-99.99,,,0.00,Acu-Link.com,2013-04-23 13:59:00,
2013-04-23 10:15:00,73.0,49.2,30.01,WNW,292,2.2,-999.0,43,-99.99,,,0.00,Acu-Link.com,2013-04-23 14:15:00,
2013-04-23 10:30:00,72.0,47.6,30.01,WSW,247,1.7,-999.0,42,-99.99,,,0.00,Acu-Link.com,2013-04-23 14:30:00,
2013-04-23 10:45:00,72.1,46.4,30.00,ESE,112,2.2,-999.0,40,-99.99,,,0.00,Acu-Link.com,2013-04-23 14:45:00,
2013-04-23 11:00:00,73.0,46.6,29.99,SE,135,1.7,-999.0,39,-99.99,,,0.00,Acu-Link.com,2013-04-23 15:00:00,
2013-04-23 11:15:00,73.4,46.9,29.99,ESE,112,3.2,-999.0,39,-99.99,,,0.00,Acu-Link.com,2013-04-23 15:15:00,
2013-04-23 11:30:00,75.7,48.3,29.98,WSW,247,4.2,-999.0,38,-99.99,,,0.00,Acu-Link.com,2013-04-23 15:30:00,
2013-04-23 11:45:00,75.0,46.9,29.98,ESE,112,2.7,-999.0,37,-99.99,,,0.00,Acu-Link.com,2013-04-23 15:45:00,
2013-04-23 12:01:00,76.5,48.3,29.97,East,90,2.2,-999.0,37,-99.99,,,0.00,Acu-Link.com,2013-04-23 16:01:00,
2013-04-23 12:16:00,77.0,49.4,29.98,SSE,157,4.2,-999.0,38,-99.99,,,0.00,Acu-Link.com,2013-04-23 16:16:00,
2013-04-23 12:31:00,76.8,47.8,29.98,South,180,4.2,-999.0,36,-99.99,,,0.00,Acu-Link.com,2013-04-23 16:31:00,
2013-04-23 12:46:00,75.6,49.6,29.98,SSW,202,3.2,-999.0,40,-99.99,,,0.00,Acu-Link.com,2013-04-23 16:46:00,
2013-04-23 13:02:00,75.6,48.9,29.97,ESE,112,6.3,-999.0,39,-99.99,,,0.00,Acu-Link.com,2013-04-23 17:02:00,
2013-04-23 13:17:00,78.4,51.4,29.96,West,270,2.2,-999.0,39,-99.99,,,0.00,Acu-Link.com,2013-04-23 17:17:00,
2013-04-23 13:32:00,80.4,51.0,29.94,NE,45,2.7,-999.0,36,-99.99,,,0.00,Acu-Link.com,2013-04-23 17:32:00,
2013-04-23 13:47:00,79.3,51.5,29.93,WNW,292,2.7,-999.0,38,-99.99,,,0.00,Acu-Link.com,2013-04-23 17:47:00,
2013-04-23 14:02:00,82.4,51.2,29.92,West,270,3.2,-999.0,34,-99.99,,,0.00,Acu-Link.com,2013-04-23 18:02:00,
2013-04-23 14:18:00,79.9,52.0,29.92,SSW,202,4.2,-999.0,38,-99.99,,,0.00,Acu-Link.com,2013-04-23 18:18:00,
2013-04-23 14:33:00,80.8,51.3,29.92,ESE,112,1.1,-999.0,36,-99.99,,,0.00,Acu-Link.com,2013-04-23 18:33:00,
2013-04-23 14:48:00,82.6,52.9,29.90,NW,315,2.7,-999.0,36,-99.99,,,0.00,Acu-Link.com,2013-04-23 18:48:00,
2013-04-23 15:03:00,82.4,51.2,29.89,WNW,292,2.7,-999.0,34,-99.99,,,0.00,Acu-Link.com,2013-04-23 19:03:00,
2013-04-23 15:20:00,81.7,52.1,29.89,West,270,0.0,-999.0,36,-99.99,,,0.00,Acu-Link.com,2013-04-23 19:20:00,
2013-04-23 15:35:00,80.2,52.3,29.89,West,270,3.7,-999.0,38,-99.99,,,0.00,Acu-Link.com,2013-04-23 19:35:00,
2013-04-23 15:52:00,82.0,51.6,29.88,SSW,202,2.7,-999.0,35,-99.99,,,0.00,Acu-Link.com,2013-04-23 19:52:00,
2013-04-23 16:07:00,80.4,51.7,29.88,SSW,202,3.7,-999.0,37,-99.99,,,0.00,Acu-Link.com,2013-04-23 20:07:00,
2013-04-23 16:22:00,79.0,53.3,29.88,SSE,157,3.7,-999.0,41,-99.99,,,0.00,Acu-Link.com,2013-04-23 20:22:00,
2013-04-23 16:44:00,78.4,52.7,29.87,NE,45,1.7,-999.0,41,-99.99,,,0.00,Acu-Link.com,2013-04-23 20:44:00,
2013-04-23 16:59:00,76.6,50.5,29.86,East,90,2.2,-999.0,40,-99.99,,,0.00,Acu-Link.com,2013-04-23 20:59:00,
2013-04-23 17:16:00,78.8,50.3,29.85,SW,225,3.2,-999.0,37,-99.99,,,0.00,Acu-Link.com,2013-04-23 21:16:00,
2013-04-23 17:33:00,78.1,51.1,29.85,WSW,247,2.7,-999.0,39,-99.99,,,0.00,Acu-Link.com,2013-04-23 21:33:00,
2013-04-23 17:49:00,77.0,50.8,29.84,SE,135,0.0,-999.0,40,-99.99,,,0.00,Acu-Link.com,2013-04-23 21:49:00,
2013-04-23 18:04:00,76.6,50.5,29.84,WSW,247,4.2,-999.0,40,-99.99,,,0.00,Acu-Link.com,2013-04-23 22:04:00,
2013-04-23 18:20:00,75.4,52.0,29.83,South,180,2.7,-999.0,44,-99.99,,,0.00,Acu-Link.com,2013-04-23 22:20:00,
2013-04-23 18:45:00,72.1,50.7,29.82,SSW,202,2.7,-999.0,47,-99.99,,,0.00,Acu-Link.com,2013-04-23 22:45:00,
2013-04-23 19:08:00,71.6,50.3,29.83,SSE,157,3.2,-999.0,47,-99.99,,,0.00,Acu-Link.com,2013-04-23 23:08:00,
2013-04-23 20:16:00,70.5,51.0,29.83,West,270,1.7,-999.0,50,-99.99,,,0.00,Acu-Link.com,2013-04-24 00:16:00,
2013-04-23 20:31:00,62.6,51.5,29.83,West,270,0.0,-999.0,67,-99.99,,,0.00,Acu-Link.com,2013-04-24 00:31:00,
2013-04-23 20:46:00,60.3,50.9,29.83,West,270,0.0,-999.0,71,-99.99,,,0.00,Acu-Link.com,2013-04-24 00:46:00,
2013-04-23 21:01:00,59.0,51.1,29.84,West,270,0.0,-999.0,75,-99.99,,,0.00,Acu-Link.com,2013-04-24 01:01:00,
2013-04-23 21:16:00,57.6,50.8,29.85,West,270,0.0,-999.0,78,-99.99,,,0.00,Acu-Link.com,2013-04-24 01:16:00,
2013-04-23 21:31:00,56.5,51.1,29.85,WNW,292,0.0,-999.0,82,-99.99,,,0.00,Acu-Link.com,2013-04-24 01:31:00,
2013-04-23 21:46:00,55.6,50.5,29.85,WNW,292,0.0,-999.0,83,-99.99,,,0.00,Acu-Link.com,2013-04-24 01:46:00,
2013-04-23 22:01:00,54.3,50.2,29.86,West,270,0.0,-999.0,86,-99.99,,,0.00,Acu-Link.com,2013-04-24 02:01:00,
2013-04-23 22:16:00,53.4,50.2,29.86,WNW,292,0.0,-999.0,89,-99.99,,,0.00,Acu-Link.com,2013-04-24 02:16:00,
2013-04-23 22:32:00,52.7,49.8,29.87,WNW,292,0.0,-999.0,90,-99.99,,,0.00,Acu-Link.com,2013-04-24 02:32:00,
2013-04-23 22:47:00,52.2,49.7,29.87,WNW,292,0.0,-999.0,91,-99.99,,,0.00,Acu-Link.com,2013-04-24 02:47:00,
2013-04-23 23:02:00,52.0,49.7,29.86,WSW,247,0.0,-999.0,92,-99.99,,,0.00,Acu-Link.com,2013-04-24 03:02:00,
2013-04-23 23:32:00,51.4,49.4,29.86,West,270,0.0,-999.0,93,-99.99,,,0.00,Acu-Link.com,2013-04-24 03:32:00,